TimeCST,TemperatureF,Dew PointF,Humidity,Sea Level PressureIn,VisibilityMPH,Wind Direction,Wind SpeedMPH,Gust SpeedMPH,PrecipitationIn,Events,Conditions,WindDirDegrees,DateUTC
12:15 AM,15.8,12.2,86,30.07,10.0,NNW,10.4,-,N/A,,Overcast,330,2012-12-31 06:15:00
12:35 AM,14.0,10.4,86,30.08,10.0,NNW,9.2,-,N/A,,Mostly Cloudy,330,2012-12-31 06:35:00
12:55 AM,14.0,10.4,86,30.09,10.0,NW,8.1,-,N/A,,Mostly Cloudy,320,2012-12-31 06:55:00
1:15 AM,14.0,12.2,93,30.09,10.0,NW,6.9,-,N/A,,Overcast,310,2012-12-31 07:15:00
1:56 AM,21.2,15.8,80,30.11,10.0,NNW,12.7,-,N/A,,Overcast,340,2012-12-31 07:56:00
2:35 AM,21.2,17.6,86,30.13,10.0,NNW,9.2,16.1,N/A,,Overcast,340,2012-12-31 08:35:00
2:56 AM,21.2,17.6,86,30.13,10.0,NNW,13.8,17.3,N/A,,Overcast,340,2012-12-31 08:56:00
3:15 AM,21.2,17.6,86,30.13,10.0,NNW,13.8,-,N/A,,Overcast,340,2012-12-31 09:15:00
3:35 AM,21.2,17.6,86,30.12,10.0,NNW,15.0,-,N/A,,Overcast,340,2012-12-31 09:35:00
3:56 AM,21.2,15.8,80,30.12,10.0,NNW,12.7,-,N/A,,Overcast,340,2012-12-31 09:56:00
4:15 AM,21.2,14.0,74,30.13,10.0,NNW,11.5,-,N/A,,Overcast,340,2012-12-31 10:15:00
4:35 AM,19.4,14.0,80,30.15,10.0,NNW,11.5,-,N/A,,Overcast,330,2012-12-31 10:35:00
4:56 AM,19.4,14.0,80,30.16,10.0,North,10.4,-,N/A,,Overcast,350,2012-12-31 10:56:00
5:15 AM,19.4,12.2,74,30.14,10.0,North,9.2,-,N/A,,Overcast,360,2012-12-31 11:15:00
5:36 AM,19.4,12.2,74,30.15,10.0,North,6.9,-,N/A,,Overcast,350,2012-12-31 11:36:00
5:55 AM,17.6,10.4,73,30.15,10.0,NNW,5.8,-,N/A,,Scattered Clouds,340,2012-12-31 11:55:00
6:15 AM,14.0,8.6,79,30.15,10.0,NW,3.5,-,N/A,,Mostly Cloudy,320,2012-12-31 12:15:00
6:35 AM,14.0,8.6,79,30.15,10.0,NNW,5.8,-,N/A,,Overcast,330,2012-12-31 12:35:00
6:55 AM,15.8,10.4,79,30.15,10.0,North,5.8,-,N/A,,Overcast,350,2012-12-31 12:55:00
7:16 AM,17.6,12.2,79,30.15,10.0,NNW,4.6,-,N/A,Snow,Light Snow,340,2012-12-31 13:16:00
7:35 AM,17.6,12.2,79,30.15,10.0,NNW,4.6,-,N/A,,Overcast,340,2012-12-31 13:35:00
7:55 AM,19.4,14.0,80,30.15,10.0,NNW,4.6,-,N/A,,Overcast,340,2012-12-31 13:55:00
8:16 AM,19.4,14.0,80,30.15,10.0,North,4.6,-,N/A,,Overcast,360,2012-12-31 14:16:00
8:35 AM,19.4,12.2,74,30.18,10.0,NNW,3.5,-,N/A,,Overcast,340,2012-12-31 14:35:00
8:55 AM,19.4,12.2,74,30.18,10.0,NNW,4.6,-,N/A,,Overcast,340,2012-12-31 14:55:00
9:15 AM,19.4,12.2,74,30.18,10.0,North,8.1,-,N/A,,Overcast,350,2012-12-31 15:15:00
9:35 AM,19.4,12.2,74,30.18,10.0,North,8.1,-,N/A,,Mostly Cloudy,360,2012-12-31 15:35:00
9:55 AM,17.6,10.4,73,30.18,10.0,NNE,6.9,-,N/A,,Clear,20,2012-12-31 15:55:00
10:15 AM,17.6,10.4,73,30.19,10.0,NNE,6.9,-,N/A,,Clear,20,2012-12-31 16:15:00
10:35 AM,17.6,10.4,73,30.19,10.0,NNE,6.9,-,N/A,,Clear,30,2012-12-31 16:35:00
10:55 AM,17.6,10.4,73,30.19,10.0,NE,10.4,-,N/A,,Clear,40,2012-12-31 16:55:00
11:15 AM,17.6,10.4,73,30.19,10.0,NNE,6.9,-,N/A,,Clear,30,2012-12-31 17:15:00
11:35 AM,15.8,8.6,73,30.20,10.0,NE,9.2,-,N/A,,Clear,40,2012-12-31 17:35:00
11:55 AM,15.8,8.6,73,30.20,10.0,ENE,6.9,-,N/A,,Clear,70,2012-12-31 17:55:00
12:16 PM,15.8,8.6,73,30.19,10.0,NE,4.6,-,N/A,,Scattered Clouds,50,2012-12-31 18:16:00
12:35 PM,15.8,8.6,73,30.19,10.0,NE,4.6,-,N/A,,Scattered Clouds,50,2012-12-31 18:35:00
12:55 PM,14.0,8.6,79,30.19,10.0,East,5.8,-,N/A,,Scattered Clouds,80,2012-12-31 18:55:00
1:16 PM,14.0,6.8,73,30.18,10.0,ENE,5.8,-,N/A,,Clear,70,2012-12-31 19:16:00
1:35 PM,14.0,6.8,73,30.18,10.0,NE,3.5,-,N/A,,Clear,50,2012-12-31 19:35:00
1:55 PM,14.0,6.8,73,30.18,10.0,ENE,4.6,-,N/A,,Clear,60,2012-12-31 19:55:00
2:16 PM,14.0,6.8,73,30.19,10.0,East,6.9,-,N/A,,Clear,80,2012-12-31 20:16:00
2:35 PM,14.0,6.8,73,30.18,10.0,ENE,5.8,-,N/A,,Clear,60,2012-12-31 20:35:00
2:55 PM,14.0,5.0,67,30.19,10.0,NE,9.2,-,N/A,,Clear,50,2012-12-31 20:55:00
3:16 PM,12.2,5.0,73,30.19,10.0,North,6.9,-,N/A,,Clear,10,2012-12-31 21:16:00
3:35 PM,12.2,5.0,73,30.18,10.0,NNE,6.9,-,N/A,,Clear,20,2012-12-31 21:35:00
3:55 PM,12.2,3.2,67,30.18,10.0,NNE,5.8,-,N/A,,Clear,30,2012-12-31 21:55:00
4:16 PM,10.4,3.2,73,30.19,10.0,NNE,3.5,-,N/A,,Clear,20,2012-12-31 22:16:00
4:35 PM,8.6,1.4,73,30.19,10.0,NNE,4.6,-,N/A,,Clear,20,2012-12-31 22:35:00
4:55 PM,8.6,1.4,73,30.19,10.0,NNE,3.5,-,N/A,,Clear,20,2012-12-31 22:55:00
5:15 PM,6.8,1.4,79,30.19,10.0,NNE,3.5,-,N/A,,Clear,30,2012-12-31 23:15:00
5:35 PM,5.0,-0.4,78,30.20,10.0,North,3.5,-,N/A,,Clear,10,2012-12-31 23:35:00
5:56 PM,5.0,-2.2,72,30.21,10.0,Calm,Calm,-,N/A,,Clear,0,2012-12-31 23:56:00
6:15 PM,3.2,-4.0,72,30.21,10.0,North,3.5,-,N/A,,Clear,360,2013-01-01 00:15:00
6:35 PM,3.2,-2.2,78,30.21,10.0,Calm,Calm,-,N/A,,Clear,0,2013-01-01 00:35:00
6:56 PM,1.4,-4.0,78,30.21,10.0,North,3.5,-,N/A,,Clear,10,2013-01-01 00:56:00
7:15 PM,-2.2,-7.6,78,30.22,10.0,Calm,Calm,-,N/A,,Clear,0,2013-01-01 01:15:00
7:35 PM,-4.0,-7.6,85,30.22,10.0,Calm,Calm,-,N/A,,Clear,0,2013-01-01 01:35:00
7:55 PM,-0.4,-4.0,85,30.22,10.0,Calm,Calm,-,N/A,,Clear,0,2013-01-01 01:55:00
8:36 PM,-4.0,-9.4,78,30.22,10.0,Calm,Calm,-,N/A,,Scattered Clouds,0,2013-01-01 02:36:00
8:55 PM,-5.8,-11.2,77,30.22,10.0,Calm,Calm,-,N/A,,Scattered Clouds,0,2013-01-01 02:55:00
9:15 PM,-4.0,-7.6,85,30.22,10.0,Calm,Calm,-,N/A,,Mostly Cloudy,0,2013-01-01 03:15:00
9:36 PM,-2.2,-7.6,78,30.21,10.0,NE,3.5,-,N/A,,Overcast,40,2013-01-01 03:36:00
9:55 PM,-0.4,-4.0,85,30.21,10.0,Calm,Calm,-,N/A,,Overcast,0,2013-01-01 03:55:00
10:15 PM,1.4,-4.0,78,30.21,10.0,Calm,Calm,-,N/A,,Overcast,0,2013-01-01 04:15:00
10:36 PM,3.2,-2.2,78,30.22,10.0,Calm,Calm,-,N/A,,Overcast,0,2013-01-01 04:36:00
10:55 PM,3.2,-2.2,78,30.23,10.0,ENE,4.6,-,N/A,,Overcast,60,2013-01-01 04:55:00
11:15 PM,3.2,-2.2,78,30.24,10.0,South,3.5,-,N/A,,Overcast,170,2013-01-01 05:15:00
11:35 PM,3.2,-4.0,72,30.24,10.0,South,3.5,-,N/A,,Overcast,190,2013-01-01 05:35:00
11:55 PM,3.2,-2.2,78,30.24,10.0,South,3.5,-,N/A,,Overcast,170,2013-01-01 05:55:00